Kankakee, IL

2:46 AM CDT on October 21, 2017 (GMT -0500)
Greater Kankakee

Weather History for KIKK - September, 2014

Change the Weather History Date:

Sunday, September 7, 2014

  Actual Average Record
Temperature  
Mean Temperature 62 °F -  
Max Temperature 76 °F 80 °F 99 °F (1990)
Min Temperature 49 °F 54 °F 43 °F (1988)
Degree Days  
Heating Degree Days 2    
Growing Degree Days 12 (Base 50)    
Moisture  
Dew Point 55 °F    
Average Humidity 78    
Maximum Humidity 100    
Minimum Humidity 46    
Precipitation  
Precipitation 0.00 in - - ()
Sea Level Pressure  
Sea Level Pressure 30.19 in    
Wind  
Wind Speed 0 mph (SSW)    
Max Wind Speed 7 mph    
Max Gust Speed -    
Visibility 10 miles    
Events Rain    
Averages and records for this station are not official NWS values.
T = Trace of Precipitation, MM = Missing Value Source: NWS Daily Summary

Daily Weather History Graph

Daily Weather History Graph

Search for Another Location

Airport or City:

Trip Planner

Search our weather history database for the weather conditions in past years. The results will help you decide how hot, cold, wet, or windy it might be!

Date:

Astronomy

Sep. 07, 2014 Rise Set
Actual Time 6:23 AM CDT 7:14 PM CDT
Civil Twilight 5:56 AM CDT 7:41 PM CDT
Nautical Twilight 5:22 AM CDT 8:14 PM CDT
Astronomical Twilight 4:48 AM CDT 8:49 PM CDT
Moon 6:13 PM CDT (9/7) 4:35 AM CDT (9/7)
Length of Visible Light 13h 45m
Length of Day
12h 50m
Waxing Gibbous, 97% of the Moon is Illuminated
Sep 7
Waxing Gibbous
Sep 8
Full
Sep 15
Last Quarter
Sep 24
New
Oct 1
First Quarter

Hourly Weather History & Observations

Time (CDT) Temp. Dew Point Humidity Pressure Visibility Wind Dir Wind Speed Gust Speed Precip Events Conditions
12:15 AM 53.6 °F 51.8 °F 94% 30.20 in 10.0 mi Calm Calm - N/A   Clear
12:35 AM 53.2 °F 52.7 °F 98% 30.20 in 10.0 mi Calm Calm - N/A   Clear
1:15 AM 51.4 °F 50.9 °F 98% 30.20 in 10.0 mi Calm Calm - N/A   Clear
1:35 AM 51.3 °F 50.5 °F 97% 30.20 in 10.0 mi Calm Calm - N/A   Clear
1:55 AM 52.2 °F 51.6 °F 98% 30.20 in 10.0 mi Calm Calm - N/A   Clear
2:15 AM 51.1 °F 50.5 °F 98% 30.20 in 10.0 mi Calm Calm - N/A   Clear
2:35 AM 50.5 °F 50.0 °F 98% 30.20 in 10.0 mi Calm Calm - N/A   Clear
2:55 AM 51.4 °F 50.9 °F 98% 30.20 in 10.0 mi Calm Calm - N/A   Clear
3:15 AM 50.7 °F 50.0 °F 97% 30.20 in 10.0 mi Calm Calm - N/A   Clear
3:35 AM 51.1 °F 50.2 °F 97% 30.20 in 10.0 mi Calm Calm - N/A   Clear
3:55 AM 51.1 °F 50.4 °F 97% 30.19 in 10.0 mi Calm Calm - N/A   Clear
4:15 AM 50.9 °F 50.2 °F 97% 30.19 in 10.0 mi Calm Calm - N/A   Clear
4:35 AM 50.7 °F 50.0 °F 97% 30.20 in 10.0 mi Calm Calm - N/A   Clear
4:55 AM 49.6 °F 48.7 °F 97% 30.20 in 10.0 mi Calm Calm - N/A   Clear
5:15 AM 50.0 °F 50.0 °F 100% 30.20 in 10.0 mi Calm Calm - N/A   Clear
5:35 AM 49.6 °F 48.9 °F 97% 30.21 in 10.0 mi Calm Calm - N/A   Clear
6:15 AM 50.4 °F 49.8 °F 98% 30.22 in 10.0 mi Calm Calm - N/A   Clear
6:35 AM 49.5 °F 48.7 °F 97% 30.22 in 10.0 mi Calm Calm - N/A   Clear
6:55 AM 50.2 °F 49.5 °F 97% 30.23 in 10.0 mi Calm Calm - N/A   Clear
7:15 AM 52.2 °F 51.4 °F 97% 30.23 in 10.0 mi Calm Calm - N/A   Clear
7:35 AM 55.2 °F 53.8 °F 95% 30.23 in 10.0 mi Calm Calm - N/A   Clear
7:55 AM 58.1 °F 55.8 °F 92% 30.23 in 10.0 mi Calm Calm - N/A   Clear
8:15 AM 60.1 °F 57.0 °F 90% 30.23 in 10.0 mi Calm Calm - N/A   Clear
8:35 AM 62.2 °F 57.2 °F 84% 30.23 in 10.0 mi Calm Calm - N/A   Clear
8:55 AM 64.0 °F 58.3 °F 82% 30.23 in 10.0 mi Calm Calm - N/A   Clear
9:15 AM 65.5 °F 58.6 °F 79% 30.24 in 10.0 mi Calm Calm - N/A   Clear
9:35 AM 66.9 °F 58.3 °F 74% 30.24 in 10.0 mi Calm Calm - N/A   Clear
9:55 AM 68.5 °F 58.6 °F 71% 30.24 in 10.0 mi Calm Calm - N/A   Clear
10:15 AM 69.4 °F 58.1 °F 67% 30.24 in 10.0 mi Calm Calm - N/A   Clear
10:35 AM 71.4 °F 60.3 °F 68% 30.23 in 10.0 mi SW 3.5 mph - N/A   Clear
10:55 AM 71.8 °F 59.9 °F 66% 30.23 in 10.0 mi Calm Calm - N/A   Clear
11:15 AM 73.4 °F 57.2 °F 57% 30.23 in 10.0 mi West 4.6 mph - N/A   Clear
11:55 AM 74.7 °F 57.0 °F 54% 30.23 in 10.0 mi Calm Calm - N/A   Mostly Cloudy
12:15 PM 74.8 °F 56.1 °F 52% 30.22 in 10.0 mi West 4.6 mph - N/A   Mostly Cloudy
12:35 PM 73.2 °F 53.6 °F 50% 30.22 in 10.0 mi Calm Calm - N/A   Scattered Clouds
12:55 PM 75.2 °F 55.4 °F 50% 30.21 in 10.0 mi West 5.8 mph - N/A   Scattered Clouds
1:15 PM 74.3 °F 54.0 °F 49% 30.21 in 10.0 mi Calm Calm - N/A   Scattered Clouds
1:35 PM 72.9 °F 55.8 °F 55% 30.20 in 10.0 mi Calm Calm - N/A   Clear
1:55 PM 74.1 °F 52.5 °F 47% 30.20 in 10.0 mi Calm Calm - N/A   Scattered Clouds
2:15 PM 76.1 °F 56.7 °F 51% 30.19 in 10.0 mi South 6.9 mph - N/A   Scattered Clouds
2:35 PM 75.7 °F 56.1 °F 50% 30.19 in 10.0 mi SSE 3.5 mph - N/A   Scattered Clouds
2:55 PM 75.6 °F 54.1 °F 47% 30.18 in 10.0 mi Calm Calm - N/A   Mostly Cloudy
3:15 PM 75.9 °F 55.8 °F 49% 30.17 in 10.0 mi WSW 4.6 mph - N/A   Scattered Clouds
3:35 PM 76.1 °F 55.6 °F 49% 30.17 in 10.0 mi SW 3.5 mph - N/A   Scattered Clouds
3:55 PM 75.9 °F 54.3 °F 47% 30.17 in 10.0 mi East 4.6 mph - N/A   Mostly Cloudy
4:15 PM 75.9 °F 55.2 °F 49% 30.16 in 10.0 mi SSE 5.8 mph - N/A   Scattered Clouds
4:35 PM 76.1 °F 56.8 °F 51% 30.16 in 10.0 mi Calm Calm - N/A   Clear
4:55 PM 75.4 °F 55.6 °F 50% 30.16 in 10.0 mi SE 3.5 mph - N/A   Scattered Clouds
5:15 PM 75.2 °F 53.6 °F 47% 30.15 in 10.0 mi Calm Calm - N/A   Scattered Clouds
5:35 PM 74.3 °F 52.3 °F 46% 30.15 in 10.0 mi Calm Calm - N/A   Clear
5:55 PM 74.3 °F 52.7 °F 47% 30.14 in 10.0 mi Calm Calm - N/A   Clear
6:15 PM 72.9 °F 56.5 °F 56% 30.14 in 10.0 mi Calm Calm - N/A   Clear
6:35 PM 72.0 °F 58.5 °F 62% 30.14 in 10.0 mi Calm Calm - N/A   Clear
6:55 PM 68.4 °F 58.5 °F 71% 30.13 in 10.0 mi Calm Calm - N/A   Clear
7:15 PM 67.1 °F 59.5 °F 77% 30.13 in 7.0 mi Calm Calm - N/A   Clear
7:35 PM 63.0 °F 59.4 °F 88% 30.13 in 10.0 mi Calm Calm - N/A Rain Rain
7:55 PM 61.9 °F 59.4 °F 91% 30.14 in 10.0 mi Calm Calm - N/A   Clear
8:15 PM 60.8 °F 59.0 °F 94% 30.14 in 10.0 mi Calm Calm - N/A   Clear
8:35 PM 60.8 °F 59.0 °F 94% 30.14 in 10.0 mi Calm Calm - N/A   Clear
8:55 PM 59.9 °F 58.5 °F 95% 30.14 in 10.0 mi Calm Calm - N/A   Clear
9:15 PM 59.0 °F 57.2 °F 94% 30.15 in 10.0 mi Calm Calm - N/A   Clear
9:35 PM 59.0 °F 57.6 °F 95% 30.15 in 10.0 mi Calm Calm - N/A   Clear
9:55 PM 58.5 °F 56.8 °F 94% 30.15 in 10.0 mi Calm Calm - N/A   Clear
10:15 PM 58.1 °F 57.2 °F 97% 30.16 in 10.0 mi Calm Calm - N/A   Clear
10:35 PM 57.2 °F 57.2 °F 100% 30.16 in 7.0 mi Calm Calm - N/A   Clear
10:55 PM 58.8 °F 58.3 °F 98% 30.16 in 10.0 mi Calm Calm - N/A   Scattered Clouds
11:15 PM 57.7 °F 57.0 °F 97% 30.16 in 10.0 mi Calm Calm - N/A   Scattered Clouds
11:35 PM 57.4 °F 56.7 °F 97% 30.16 in 10.0 mi Calm Calm - N/A   Clear
11:55 PM 56.7 °F 55.9 °F 97% 30.16 in 10.0 mi Calm Calm - N/A   Clear